{"data":{"norad_id":50573,"intl_designator":"2021-134B","name":"TIANHUI 4B","alt_names":[],"object_type":"PAYLOAD","status":"ACTIVE","operator":null,"country":"PRC","launch_date":"2021-12-29","launch_site_code":"JSC","launch_vehicle":null,"mission":null,"orbit_class":"UNKNOWN","rcs_meters":null,"size_class":null,"mass_kg":null,"dimensions":null,"purposes":[],"wikipedia_slug":null,"has_3d_model":false,"image_url":null,"decayed_at":null,"tle_current":{"epoch":"2026-05-25T04:31:25.352832Z","epoch_age_seconds":62026,"freshness":"FRESH","line1":"1 50573U 21134B   26145.18848788  .00005216  00000+0  10567-3 0  9996","line2":"2 50573  88.9705 325.9841 0008953 146.1092 214.0742 15.46140721246282","mean_motion":15.46140721,"eccentricity":0.0008953,"inclination_deg":88.9705,"raan_deg":325.9841,"arg_perigee_deg":146.1092,"mean_anomaly_deg":214.0742,"bstar":0.00010567,"rev_number":24628,"period_min":93.13511897343,"perigee_km":421.93479033453,"apogee_km":434.12191001055,"semimajor_km":6806.1653501725,"source":"CELESTRAK","updated_at":"2026-05-25T13:37:57.349374Z"}}}